Regional Weather Roundup
Issued by NWS

Home | Current Version | Previous Version | Text Only | Print | Product List | Glossary On
Versions: 1 2 3 4 5 6 7 8 9 10 11 12 13 14 15 16 17 18 19 20 21 22 23 24 25 26 27 28 29 30 31 32 33 34 35 36 37 38 39 40 41 42 43 44 45 46 47 48 49 50
583
ASUS44 KJAN 272210
RWRMS

MISSISSIPPI HOURLY WEATHER ROUNDUP
NATIONAL WEATHER SERVICE JACKSON MS
400 PM CST TUE JAN 27 2015

NOTE: "FAIR: INDICATES FEW OR NO CLOUDS BELOW 12,000 FEET WITH NO
SIGNIFICANT WEATHER AND/OR OBSTRUCTIONS TO VISIBILITY.

MSZ001>002-007>008-010>013-018>021-025>028-034>036-272300-
NORTHWEST MISSISSIPPI

CITY           SKY/WX    TMP DP  RH WIND       PRES   REMARKS
CLARKSDALE     FAIR      57  39  51 N7        30.14R
CLEVELAND      FAIR      60  41  49 NW9       30.12S
GREENWOOD      SUNNY     60  35  39 NW7       30.11R
GREENVILLE     SUNNY     62  37  39 N7        30.12R
GRENADA        FAIR      59  32  36 N6        30.10S
OXFORD         FAIR      55  32  41 N10       30.12S
TUNICA         CLEAR     54  39  58 N10       30.14R
$$

MSZ003>006-009-014>017-022>024-029>033-037>039-272300-
NORTHEAST MISSISSIPPI

CITY           SKY/WX    TMP DP  RH WIND       PRES   REMARKS
COLUMBUS AFB   SUNNY     58  32  36 N14       30.08S
CORINTH        FAIR      54  32  43 VRB7G14   30.09S
GOLDN TRIANGLE SUNNY     59  36  41 N7        30.07S
STARKVILLE     FAIR      59  34  38 N7        30.09R
TUPELO         SUNNY     57  33  40 N10       30.09R
$$

MSZ040-058-272300-
CENTRAL MISSISSIPPI

CITY           SKY/WX    TMP DP  RH WIND       PRES   REMARKS
JACKSON INTL   SUNNY     66  33  29 NW12      30.08S
JACKSON HAWKNS SUNNY     66  29  24 NW9       30.10R
MERIDIAN KEY   SUNNY     65  30  27 N12       30.06R
MERIDIAN NAS   SUNNY     64  31  28 NW14      30.07R
RAYMOND        FAIR      66  61  82 N5        30.10S
VICKSBURG      SUNNY     67  36  31 MISG      30.12R
$$

MSZ059>079-272300-
SOUTH MISSISSIPPI

CITY           SKY/WX    TMP DP  RH WIND       PRES   REMARKS
BROOKHAVEN     FAIR      70  32  24 NW8       30.10R
HATTIESBURG    SUNNY     71  31  22 NW14      30.07R
MCCOMB         SUNNY     71  34  25 NW13      30.08S
NATCHEZ        SUNNY     68  36  30 NW8       30.12R
PINE BELT      SUNNY     70  34  26 NW12      30.08R
$$

MSZ080>082-272300-
COASTAL MISSISSIPPI

CITY           SKY/WX    TMP DP  RH WIND       PRES   REMARKS
BAY ST LOUIS   SUNNY     72  21  15 NW9       30.06R
BILOXI         SUNNY     64  47  54 SW8       30.05R
PASCAGOULA     SUNNY     70  35  27 NW7       30.04R
GULFPORT       SUNNY     72  34  24 NW13      30.05R
$$



USA.gov is the U.S. government's official web portal to all federal, state and local government web resources and services.